{"data":{"norad_id":54191,"epoch":"2026-09-20T22:00:03.000096Z","epoch_age_seconds":53148,"freshness":"FRESH","line1":"1 54191U 22141AL  26263.91670139 -.00024572  00000+0 -71857-3 0  9997","line2":"2 54191  53.1608 185.6035 0001318  88.1875 274.8127 15.34395327  5832","mean_motion":15.34395327,"eccentricity":0.0001318,"inclination_deg":53.1608,"raan_deg":185.6035,"arg_perigee_deg":88.1875,"mean_anomaly_deg":274.8127,"bstar":-0.00071857,"rev_number":583,"period_min":93.848043894623,"perigee_km":461.81550480889,"apogee_km":463.6187539574,"semimajor_km":6840.8541293831,"source":"CELESTRAK","updated_at":"2026-09-21T09:00:33.094773Z"}}